N0MR Weather Reports


time (UTC)temp
C
wind
direction
speed
KPH
gust
KPH
rain 1hr
cm
rain 24hr
cm
rain mn
cm
humidity
%
barometer
mb
20260905044931 15 238 0.0 1.6 0.00 1.40 1.40 97 1016.8
20260905043930 15 238 0.0 1.6 0.00 1.70 1.70 97 1016.9
20260905042941 15 238 0.0 1.6 0.00 1.70 1.70 97 1016.9
20260905041931 15 238 0.0 1.6 0.00 1.70 1.70 97 1017.1
20260905040930 15 238 0.0 1.6 0.00 1.70 1.70 97 1017.1
20260905035931 15 255 0.0 3.2 0.00 1.70 1.35 97 1017.0
20260905033930 15 290 0.0 1.6 0.00 1.70 1.70 97 1016.9
20260905032934 15 290 0.0 1.6 0.00 1.70 1.70 97 1016.9
20260905031930 15 290 0.0 3.2 0.00 1.83 1.70 97 1016.9
20260905024931 15 240 0.0 0.0 0.00 1.88 1.70 97 1016.9
20260905023931 15 240 0.0 0.0 0.00 1.88 1.70 97 1016.9
20260905022931 15 239 0.0 1.6 0.00 2.34 1.70 97 1016.7
20260905021932 15 239 0.0 1.6 0.00 2.34 1.70 97 1016.7
20260905020931 15 239 0.0 1.6 0.00 2.34 1.35 97 1016.7
20260905015931 15 239 0.0 1.6 0.00 2.34 1.35 97 1016.7
20260905000932 15 267 0.0 1.6 0.00 2.34 1.35 96 1015.8
20260904235943 15 267 0.0 1.6 0.00 2.34 1.35 96 1015.8
20260904233329 16 330 0.0 0.0 0.00 2.34 1.70 96 1015.8
20260904232330 16 330 0.0 0.0 0.00 2.34 1.70 96 1015.8
20260904231333 16 329 0.0 6.4 0.00 2.34 1.70 96 1015.7
20260904230329 16 329 0.0 6.4 0.00 2.34 1.70 96 1015.7
20260904225329 16 64 0.0 3.2 0.00 2.34 1.40 96 1015.8
20260904224331 16 64 0.0 3.2 0.00 2.34 1.40 96 1015.8
20260904223329 16 319 0.0 3.2 0.00 2.34 1.70 96 1015.5
20260904222331 16 259 0.0 1.6 0.00 2.34 1.70 95 1015.4
20260904221329 16 259 0.0 1.6 0.00 2.34 1.70 95 1015.4
20260904220330 16 275 0.0 1.6 0.00 2.34 1.40 96 1015.3
20260904215329 16 275 0.0 1.6 0.00 2.34 1.40 96 1015.3
20260904214331 17 275 0.0 0.0 0.00 2.34 1.70 95 1015.1
20260904213329 17 275 0.0 0.0 0.00 2.34 1.70 95 1015.1
20260904212329 17 275 0.0 0.0 0.00 2.34 1.70 96 1015.0
20260904211332 17 275 0.0 0.0 0.00 2.34 1.70 96 1015.0
20260904210331 17 271 0.0 1.6 0.00 2.34 1.35 96 1015.1
20260904205334 17 271 0.0 1.6 0.00 2.34 1.35 96 1015.1
20260904203333 17 270 0.0 1.6 0.00 2.34 1.70 96 1014.9
20260904202331 17 270 0.0 3.2 0.00 2.34 1.70 97 1014.7
20260904201333 17 270 0.0 3.2 0.00 2.34 1.70 97 1014.7
20260904200330 17 215 0.0 0.0 0.00 2.34 1.35 97 1014.5
20260904195340 17 215 0.0 0.0 0.00 2.34 1.35 97 1014.5
20260904194331 17 215 0.0 0.0 0.00 2.34 1.40 97 1014.5
20260904193331 17 215 0.0 0.0 0.00 2.34 1.40 97 1014.5
20260904192332 17 215 0.0 3.2 0.00 2.34 1.70 97 1014.5
20260904165332 16 65 0.0 1.6 0.00 2.34 1.40 97 1014.1
20260904152331 15 245 0.0 3.2 0.00 2.34 1.70 97 1013.4
20260904151332 15 245 0.0 3.2 0.00 2.34 1.70 97 1013.4
20260904150333 15 246 0.0 4.8 0.00 2.34 1.35 97 1013.1
20260904145332 15 246 0.0 4.8 0.00 2.34 1.35 97 1013.1
20260904144332 15 219 0.0 6.4 0.00 2.34 1.70 97 1013.0
20260904143332 15 219 0.0 6.4 0.00 2.34 1.70 97 1013.0
20260904142331 15 221 0.0 9.7 0.00 2.34 1.70 97 1012.8
20260904141332 15 221 0.0 9.7 0.00 2.34 1.70 97 1012.8
20260904140332 15 336 0.0 6.4 0.00 2.34 1.35 97 1012.5
20260904135336 15 336 0.0 6.4 0.00 2.34 1.35 97 1012.5
20260904133332 15 267 0.0 1.6 0.00 2.34 1.40 97 1012.4
20260904132332 15 253 0.0 6.4 0.00 2.34 1.70 97 1012.0
20260904131333 15 253 0.0 6.4 0.00 2.34 1.70 97 1012.0
20260904130334 15 319 0.0 0.0 0.00 2.34 1.35 97 1012.0
20260904115334 14 49 0.0 1.6 0.00 2.34 1.40 97 1011.4
20260904114333 14 49 0.0 1.6 0.00 2.34 1.40 97 1011.4
20260904113332 14 246 0.0 3.2 0.00 2.34 1.70 97 1011.1
20260904112334 14 246 0.0 3.2 0.00 2.34 1.70 97 1011.1
20260904111334 14 36 0.0 3.2 0.00 2.34 1.35 97 1010.9
20260904110336 14 36 0.0 3.2 0.00 2.34 1.35 97 1010.9
20260904105343 14 44 0.0 3.2 0.00 2.34 1.40 97 1011.0
20260904104334 14 44 0.0 3.2 0.00 2.34 1.40 97 1011.0
20260904103334 13 205 0.0 8.0 0.00 2.34 1.70 97 1010.9
20260904102333 13 205 0.0 8.0 0.00 2.34 1.70 97 1010.9
20260904101334 14 274 0.0 4.8 0.00 2.34 1.70 97 1010.9
20260904100338 14 274 0.0 4.8 0.00 2.34 1.70 97 1010.9
20260904095342 13 269 0.0 0.0 0.00 2.34 1.40 97 1010.7
20260904094333 13 269 0.0 6.4 0.00 2.34 1.70 97 1010.8
20260904093337 13 269 0.0 6.4 0.00 2.34 1.70 97 1010.8
20260904092333 13 266 0.0 1.6 0.00 2.34 1.70 97 1011.1
20260904091336 13 266 0.0 1.6 0.00 2.34 1.70 97 1011.1
20260904090333 13 265 0.0 3.2 0.00 2.34 1.35 96 1010.8
20260904085334 13 265 0.0 3.2 0.00 2.34 1.35 96 1010.8
20260904084343 13 219 0.0 1.6 1.24 2.34 1.70 96 1011.0
20260904083336 13 219 0.0 1.6 1.24 2.34 1.70 96 1011.0
20260904082335 14 219 1.6 8.0 1.27 2.34 1.70 96 1011.2
20260904081337 14 219 1.6 8.0 1.27 2.34 1.70 96 1011.2
20260904080337 14 230 0.0 6.4 1.30 2.34 1.35 96 1011.3
20260904074338 14 313 0.0 12.9 0.10 1.09 0.46 97 1011.7
20260904073337 14 313 0.0 12.9 0.10 1.09 0.46 97 1011.7
20260904071336 13 242 1.6 9.7 0.08 1.07 0.43 96 1012.0
20260904070334 13 214 0.0 8.0 0.05 1.04 0.05 96 1011.3
20260904065333 13 214 0.0 8.0 0.05 1.04 0.05 96 1011.3
20260904064333 13 169 0.0 4.8 0.03 1.02 0.08 96 1012.0
20260904063337 14 70 0.0 3.2 0.00 0.99 0.36 96 1011.9
20260904062333 14 70 0.0 3.2 0.00 0.99 0.36 96 1011.9
20260904061334 14 315 0.0 3.2 0.00 0.99 0.00 96 1012.3
20260904060435 14 315 0.0 3.2 0.00 0.99 0.00 96 1012.3
20260904055439 14 74 0.0 3.2 0.05 0.99 0.05 96 1012.0
20260904054436 14 74 0.0 3.2 0.05 0.99 0.05 96 1012.0
20260904053435 14 24 0.0 1.6 0.36 0.99 0.36 96 1012.4
20260904052436 14 24 0.0 1.6 0.36 0.99 0.36 96 1012.4
20260904051435 14 245 0.0 8.0 0.36 0.99 0.99 95 1012.0
20260904050439 14 245 0.0 8.0 0.36 0.99 0.99 95 1012.0